Satellite: MET-2/21 Catalog number: 22782 Epoch time: 10203.58051172 Element set: 836 Inclination: 082.5458 deg RA of node: 224.3604 deg Eccentricity: 0.0021034 Arg of perigee: 306.3386 deg Mean anomaly: 053.5817 deg Mean motion: 13.83645263 rev/day Decay rate: 3.5e-07 rev/day^2 Epoch rev: 85297 Checksum: 290
Satellite: OKEAN-4 Catalog number: 23317 Epoch time: 10203.74880827 Element set: 291 Inclination: 082.5424 deg RA of node: 320.6652 deg Eccentricity: 0.0023620 Arg of perigee: 122.0925 deg Mean anomaly: 238.2590 deg Mean motion: 14.82837012 rev/day Decay rate: 4.7e-07 rev/day^2 Epoch rev: 85172 Checksum: 275
Satellite: NOAA-14 Catalog number: 23455 Epoch time: 10203.52772370 Element set: 133 Inclination: 098.8774 deg RA of node: 284.0246 deg Eccentricity: 0.0009952 Arg of perigee: 131.5149 deg Mean anomaly: 228.6878 deg Mean motion: 14.13790434 rev/day Decay rate: 2.4e-07 rev/day^2 Epoch rev: 80249 Checksum: 305
Satellite: NOAA-15 Catalog number: 25338 Epoch time: 10203.75711618 Element set: 455 Inclination: 098.6204 deg RA of node: 190.0468 deg Eccentricity: 0.0010251 Arg of perigee: 336.8674 deg Mean anomaly: 023.2021 deg Mean motion: 14.24842078 rev/day Decay rate: 1.1e-07 rev/day^2 Epoch rev: 63381 Checksum: 270
Satellite: RESURS Catalog number: 25394 Epoch time: 10202.77272224 Element set: 558 Inclination: 098.3041 deg RA of node: 218.9692 deg Eccentricity: 0.0002218 Arg of perigee: 099.9757 deg Mean anomaly: 260.1667 deg Mean motion: 14.24206268 rev/day Decay rate: -1.2e-07 rev/day^2 Epoch rev: 62527 Checksum: 299
Satellite: FENGYUN1 Catalog number: 25730 Epoch time: 10202.90805683 Element set: 94 Inclination: 098.7856 deg RA of node: 166.9590 deg Eccentricity: 0.0021576 Arg of perigee: 165.0683 deg Mean anomaly: 195.1123 deg Mean motion: 14.08206700 rev/day Decay rate: 4.34e-06 rev/day^2 Epoch rev: 57657 Checksum: 304
Satellite: OKEAN-0 Catalog number: 25860 Epoch time: 10203.72416469 Element set: 53 Inclination: 097.8348 deg RA of node: 175.2190 deg Eccentricity: 0.0001234 Arg of perigee: 042.9210 deg Mean anomaly: 317.2087 deg Mean motion: 14.73650055 rev/day Decay rate: 4.3e-07 rev/day^2 Epoch rev: 59213 Checksum: 268
Satellite: NOAA-16 Catalog number: 26536 Epoch time: 10203.71327107 Element set: 932 Inclination: 099.1699 deg RA of node: 222.0187 deg Eccentricity: 0.0009789 Arg of perigee: 234.8292 deg Mean anomaly: 125.1948 deg Mean motion: 14.12567338 rev/day Decay rate: -2.92e-06 rev/day^2 Epoch rev: 50684 Checksum: 322
Satellite: NOAA-17 Catalog number: 27453 Epoch time: 10203.68641516 Element set: 929 Inclination: 098.4286 deg RA of node: 252.6973 deg Eccentricity: 0.0012322 Arg of perigee: 038.0201 deg Mean anomaly: 322.1862 deg Mean motion: 14.24174647 rev/day Decay rate: -7.0e-08 rev/day^2 Epoch rev: 41975 Checksum: 297
Satellite: NOAA-18 Catalog number: 28654 Epoch time: 10203.67563259 Element set: 414 Inclination: 098.9505 deg RA of node: 149.8404 deg Eccentricity: 0.0013802 Arg of perigee: 316.4857 deg Mean anomaly: 043.5213 deg Mean motion: 14.11374571 rev/day Decay rate: 1.84e-06 rev/day^2 Epoch rev: 26644 Checksum: 303
Satellite: NOAA-19 Catalog number: 33591 Epoch time: 10203.67140934 Element set: 612 Inclination: 098.7880 deg RA of node: 145.0399 deg Eccentricity: 0.0013899 Arg of perigee: 185.3529 deg Mean anomaly: 174.7480 deg Mean motion: 14.11070681 rev/day Decay rate: 3.31e-06 rev/day^2 Epoch rev: 7491 Checksum: 312
/EX SB KEPS @ AMSAT $ORB10203.M Orbital Elements 10203.MISC
HR AMSAT ORBITAL ELEMENTS FOR MANNED AND MISCELLANEOUS SATELLITES FROM WA5QGD FORT WORTH,TX July 22, 2010 Send Subscribe/unsubscribe to KEPS at http://www.amsat.org/mailman/listinfo/keps BID: ORB10203.M TO ALL RADIO AMATEURS BT
Satellite: HUBBLE Catalog number: 20580 Epoch time: 10203.15521287 Element set: 607 Inclination: 028.4704 deg RA of node: 011.5685 deg Eccentricity: 0.0003323 Arg of perigee: 211.0255 deg Mean anomaly: 149.0127 deg Mean motion: 15.01000605 rev/day Decay rate: 3.67e-06 rev/day^2 Epoch rev: 91001 Checksum: 221
Satellite: ISS Catalog number: 25544 Epoch time: 10203.99595852 Element set: 565 Inclination: 051.6455 deg RA of node: 047.3099 deg Eccentricity: 0.0008320 Arg of perigee: 136.8499 deg Mean anomaly: 013.3321 deg Mean motion: 15.71272503 rev/day Decay rate: 8.007e-05 rev/day^2 Epoch rev: 66910 Checksum: 296
Satellite: CO-58 Catalog number: 28895 Epoch time: 10203.21021823 Element set: 637 Inclination: 098.0106 deg RA of node: 086.5206 deg Eccentricity: 0.0017827 Arg of perigee: 172.1562 deg Mean anomaly: 187.9932 deg Mean motion: 14.59911397 rev/day Decay rate: 6.3e-07 rev/day^2 Epoch rev: 25209 Checksum: 312
Satellite: FALCON Catalog number: 30776 Epoch time: 10202.40894399 Element set: 0888 Inclination: 035.4329 deg RA of node: 196.5174 deg Eccentricity: 0.0000399 Arg of perigee: 074.7547 deg Mean anomaly: 285.3213 deg Mean motion: 15.03718478 rev/day Decay rate: 3.72e-06 rev/day^2 Epoch rev: 18521 Checksum: 318
Satellite: MAST Catalog number: 31126 Epoch time: 10203.67251296 Element set: 919 Inclination: 097.9357 deg RA of node: 243.8460 deg Eccentricity: 0.0095644 Arg of perigee: 115.4850 deg Mean anomaly: 245.6263 deg Mean motion: 14.53603337 rev/day Decay rate: 2.8e-07 rev/day^2 Epoch rev: 17321 Checksum: 292
Satellite: CAPE1 Catalog number: 31130 Epoch time: 10202.79383944 Element set: 939 Inclination: 097.9359 deg RA of node: 240.3522 deg Eccentricity: 0.0104001 Arg of perigee: 126.3824 deg Mean anomaly: 234.6971 deg Mean motion: 14.52198371 rev/day Decay rate: -1.97e-06 rev/day^2 Epoch rev: 17268 Checksum: 298
Satellite: COMPASS Catalog number: 32787 Epoch time: 10202.19984587 Element set: 0731 Inclination: 097.8929 deg RA of node: 266.4883 deg Eccentricity: 0.0015865 Arg of perigee: 170.5262 deg Mean anomaly: 189.6266 deg Mean motion: 14.81910418 rev/day Decay rate: -4.3e-07 rev/day^2 Epoch rev: 12053 Checksum: 327
Satellite: AAUSAT2 Catalog number: 32788 Epoch time: 10203.14480724 Element set: 722 Inclination: 097.8921 deg RA of node: 267.5543 deg Eccentricity: 0.0015335 Arg of perigee: 168.2345 deg Mean anomaly: 191.9225 deg Mean motion: 14.82058559 rev/day Decay rate: 5.45e-06 rev/day^2 Epoch rev: 12068 Checksum: 307
Satellite: DO-64 Catalog number: 32789 Epoch time: 10202.74510147 Element set: 0743 Inclination: 097.8982 deg RA of node: 267.6725 deg Eccentricity: 0.0015850 Arg of perigee: 167.8401 deg Mean anomaly: 192.3202 deg Mean motion: 14.82216443 rev/day Decay rate: 6.17e-06 rev/day^2 Epoch rev: 12062 Checksum: 300
Satellite: CO-66 Catalog number: 32791 Epoch time: 10203.64494972 Element set: 723 Inclination: 097.8939 deg RA of node: 267.9233 deg Eccentricity: 0.0016146 Arg of perigee: 164.2715 deg Mean anomaly: 195.8974 deg Mean motion: 14.81692416 rev/day Decay rate: 1.23e-06 rev/day^2 Epoch rev: 12070 Checksum: 329
Satellite: RS-30 Catalog number: 32953 Epoch time: 10203.54463007 Element set: 889 Inclination: 082.5009 deg RA of node: 007.6863 deg Eccentricity: 0.0019380 Arg of perigee: 028.2263 deg Mean anomaly: 331.9863 deg Mean motion: 12.43006625 rev/day Decay rate: 1.0e-07 rev/day^2 Epoch rev: 9813 Checksum: 278
Satellite: TACSAT-3 Catalog number: 35001 Epoch time: 10202.89049264 Element set: 0340 Inclination: 040.4564 deg RA of node: 005.6063 deg Eccentricity: 0.0022249 Arg of perigee: 267.5387 deg Mean anomaly: 092.2881 deg Mean motion: 15.42063997 rev/day Decay rate: 3.670e-05 rev/day^2 Epoch rev: 06599 Checksum: 296
Satellite: PHARMSAT Catalog number: 35002 Epoch time: 10203.80383344 Element set: 321 Inclination: 040.4702 deg RA of node: 357.9937 deg Eccentricity: 0.0025401 Arg of perigee: 277.0448 deg Mean anomaly: 082.7477 deg Mean motion: 15.42566227 rev/day Decay rate: 3.056e-05 rev/day^2 Epoch rev: 6615 Checksum: 274
Satellite: HAWKSAT1 Catalog number: 35003 Epoch time: 10203.83214184 Element set: 344 Inclination: 040.4610 deg RA of node: 351.5551 deg Eccentricity: 0.0023527 Arg of perigee: 292.6975 deg Mean anomaly: 067.1353 deg Mean motion: 15.45933564 rev/day Decay rate: 6.987e-05 rev/day^2 Epoch rev: 6623 Checksum: 284
Satellite: CP6 Catalog number: 35004 Epoch time: 10203.74424217 Element set: 340 Inclination: 040.4609 deg RA of node: 350.8789 deg Eccentricity: 0.0022413 Arg of perigee: 294.7955 deg Mean anomaly: 065.0532 deg Mean motion: 15.46861821 rev/day Decay rate: 8.347e-05 rev/day^2 Epoch rev: 6622 Checksum: 287
Satellite: AEROCUB3 Catalog number: 35005 Epoch time: 10202.83023761 Element set: 386 Inclination: 040.4686 deg RA of node: 352.1398 deg Eccentricity: 0.0020186 Arg of perigee: 308.5721 deg Mean anomaly: 051.3289 deg Mean motion: 15.53219826 rev/day Decay rate: 2.6795e-04 rev/day^2 Epoch rev: 6613 Checksum: 292
Satellite: CASTOR Catalog number: 35694 Epoch time: 10203.73087050 Element set: 579 Inclination: 051.6314 deg RA of node: 008.7596 deg Eccentricity: 0.0003721 Arg of perigee: 308.6987 deg Mean anomaly: 051.3827 deg Mean motion: 16.10734995 rev/day Decay rate: 1.67107e-03 rev/day^2 Epoch rev: 5677 Checksum: 317
Satellite: METEOR-M Catalog number: 35865 Epoch time: 10203.74231965 Element set: 494 Inclination: 098.7557 deg RA of node: 257.2838 deg Eccentricity: 0.0001712 Arg of perigee: 277.7439 deg Mean anomaly: 082.3511 deg Mean motion: 14.21830954 rev/day Decay rate: 1.76e-06 rev/day^2 Epoch rev: 4377 Checksum: 315
Satellite: RS-38 Catalog number: 35869 Epoch time: 10203.70996592 Element set: 503 Inclination: 098.7541 deg RA of node: 257.2860 deg Eccentricity: 0.0003887 Arg of perigee: 266.5625 deg Mean anomaly: 093.5095 deg Mean motion: 14.21985499 rev/day Decay rate: 1.77e-06 rev/day^2 Epoch rev: 4377 Checksum: 354
/EX